This is the latest recevied weather packets stored in our database for station/object OK2ILA-1. If no packets are shown the sender has not sent any weather packets the latest 10 day(s).
| Time | Temp. | Humidity | Pressure | Rain* | Wind** | Luminosity | Snow |
|---|---|---|---|---|---|---|---|
| 1777632729 | 18.33° C | 100% | 1027.9 hPa | 0 mm | - | - | - |
| 1777632008 | 17.78° C | 100% | 1028 hPa | 0 mm | - | - | - |
| 1777631287 | 17.22° C | 100% | 1028.1 hPa | 0 mm | - | - | - |
| 1777630567 | 17.22° C | 100% | 1028.1 hPa | 0 mm | - | - | - |
| 1777629846 | 17.22° C | 100% | 1028.3 hPa | 0 mm | - | - | - |
| 1777629125 | 16.67° C | 100% | 1028.4 hPa | 0 mm | - | - | - |
| 1777628405 | 16.67° C | 100% | 1028.5 hPa | 0 mm | - | - | - |
| 1777627684 | 16.11° C | 100% | 1028.6 hPa | 0 mm | - | - | - |
| 1777626963 | 15.56° C | 100% | 1028.6 hPa | 0 mm | - | - | - |
| 1777626243 | 15° C | 100% | 1028.7 hPa | 0 mm | - | - | - |
| 1777625522 | 15° C | 100% | 1028.8 hPa | 0 mm | - | - | - |
| 1777624801 | 14.44° C | 100% | 1028.9 hPa | 0 mm | - | - | - |
| 1777624081 | 14.44° C | 100% | 1028.8 hPa | 0 mm | - | - | - |
| 1777623360 | 14.44° C | 100% | 1028.8 hPa | 0 mm | - | - | - |
| 1777622639 | 15° C | 100% | 1028.8 hPa | 0 mm | - | - | - |
| 1777621919 | 15° C | 100% | 1028.8 hPa | 0 mm | - | - | - |
| 1777621198 | 14.44° C | 100% | 1028.8 hPa | 0 mm | - | - | - |
| 1777620477 | 13.89° C | 100% | 1028.7 hPa | 0 mm | - | - | - |
| 1777619757 | 13.33° C | 100% | 1028.7 hPa | 0 mm | - | - | - |
| 1777619036 | 12.78° C | 100% | 1028.7 hPa | 0 mm | - | - | - |
| 1777618315 | 12.78° C | 100% | 1028.6 hPa | 0 mm | - | - | - |
| 1777617595 | 12.22° C | 100% | 1028.6 hPa | 0 mm | - | - | - |
| 1777616874 | 12.22° C | 100% | 1028.6 hPa | 0 mm | - | - | - |
| 1777616153 | 11.67° C | 100% | 1028.6 hPa | 0 mm | - | - | - |
| 1777615433 | 11.11° C | 100% | 1028.5 hPa | 0 mm | - | - | - |
* Rain latest hour (hover to see other rain measurements)
** Current wind speed in m/s (hover to see current wind gust speed)